星链-3109 (STARLINK-3109 )

导读

STARLINK-3109是美国SpaceX公司星链星座的一员,于2021年9月14日发射入轨,属于星链低轨互联网卫星组网的组成部分。星链计划旨在通过大规模低轨卫星部署,为全球提供高速低延迟宽带互联网服务,该卫星遵循星链标准设计,配备霍尔推进器可自主规避太空碰撞,服务全球偏远及城市化区域网络接入,助力星链全球覆盖的组网目标。

基本信息
目录编号:
49143
目录名称:
STARLINK-3109
国际标识:
2021-082P
轨道中心:
EARTH
卫星名称:
星链-3109
卫星全名:
星链-3109 (STARLINK-3109 )
卫星状态:
在轨 (已飞行1738 天)
发射日期:
2021-09-14 UTC
国别 :
美国 (US)
星等 :
--
轨道信息
数据来源 国际轨道数据
星历时间: 2026-06-18T04:53:32+0800
10小时前
查看轨道信息
半长轴: 6952.74km
偏心率: 0.0002965
轨道倾角: 70.000°
近地点辐角 268.116°
升交点赤经 22.974°
平近点角 91.966°
近地点: 572.541km
远地点: 576.665km
周期: 96.160分钟
每日圈数: 14.975068
详细信息
固有亮度:
5
最大亮度:
2.5
卫星平台:
Starlink v1.5
覆盖范围:
全球
运营商:
太空探索技术公司
运营商所在国:
美国
制造商(研发单位):
太空探索技术公司
制造商所在国:
美国
使用方式:
暂无
卫星简介
星链(Starlink)计划是由太空探索技术公司(SpaceX)提出的一个巨型低轨卫星互联网星座项目,计划在2019年至2024年间在太空搭建由约1.2万颗卫星组成的“星链”网络,其中1584颗将部署在地球上空550千米处的近地轨道,并从2020年开始工作。该卫星仍在工作。
2D轨道图
3D轨道图
轨道高度分析图
轨道倾角分析图
轨道综合分析图
查看轨道综合分析图